CAPE
1047 1237 1628 1526 20 45 110 441 790 504 380 822 0 263 225 407 229 0 235 128 592 654 578 780 1156 639 555 863 972 793 602 423 650 819 585 410 346 479 400 534 551 716 962 1208 1390 1289 784 1199 979
1414 1044 165 10 0 3 36 197 512 679 540 420 321 457 440 536 468 348 226 508 607 577 540 468 1329 650 484 651 721 546 382 309 563 651 891 433 363 345 422 628 766 1061 1391 1361 1104 1276 784 854 1320
863 352 4 1 0 25 178 332 761 483 542 532 273 353 563 497 455 222 372 646 622 531 445 425 895 516 525 676 550 468 340 290 447 937 649 371 339 351 411 756 1189 1413 1622 1702 1160 971 913 1057 1462
733 110 103 48 35 7 158 346 724 586 512 326 266 436 441 330 203 461 631 712 498 414 503 633 755 517 631 436 439 426 269 304 424 609 436 311 314 505 733 860 1167 1494 1597 2022 1948 1156 1220 1638 1396
53 197 39 40 137 253 394 549 631 723 544 321 186 296 233 350 390 631 733 583 462 483 763 572 938 670 644 632 530 438 379 316 471 511 474 299 398 635 1066 1479 1765 1980 1538 1650 2148 1420 1851 1562 1563
49 74 27 109 703 885 766 747 765 453 282 241 200 199 269 446 575 711 534 485 422 519 921 695 914 824 954 774 685 607 454 361 512 522 567 582 827 1331 1820 2075 2118 2087 1711 1544 1912 1856 1642 1562 1557
10 0 0 46 948 937 971 672 577 334 245 252 184 229 332 416 504 488 279 239 371 668 966 889 904 863 1181 1086 988 861 452 377 615 753 857 1216 1658 1737 2001 2533 2244 2650 2061 1879 2045 1902 1803 1818 1612
11 0 10 5 442 728 840 584 352 363 267 148 237 220 540 303 403 359 99 41 563 813 962 805 705 1179 867 958 1330 900 327 472 636 1234 1610 1938 1648 1375 1505 1882 2538 2568 2347 2508 2214 2081 1881 1589 1286
327 79 13 111 255 608 750 472 428 340 189 260 225 232 239 255 422 342 98 119 474 813 992 817 935 1059 952 978 1046 479 374 786 1128 1028 1126 483 300 349 839 1920 1791 1883 2232 2122 2470 2336 2012 1673 1294
266 259 351 81 70 264 869 653 585 362 302 252 221 248 242 345 377 297 148 54 311 685 987 934 995 1041 1034 1158 439 49 191 129 196 315 34 107 218 492 741 867 1075 1480 1461 2031 2133 1534 791 461 290
11 31 70 95 84 437 1022 932 698 345 375 271 237 274 293 341 344 318 168 2 23 361 740 1034 921 799 833 576 82 62 97 120 107 0 119 218 124 122 111 87 44 70 434 426 813 685 419 289 337
136 188 152 192 264 158 1153 1101 550 484 574 323 304 327 341 353 373 405 255 130 357 629 773 1101 892 765 532 171 94 97 351 66 0 0 220 18 120 74 29 5 0 18 49 483 723 612 321 312 355
197 249 160 162 21 118 1022 1043 773 694 598 550 503 437 368 344 384 452 287 209 354 612 847 1063 987 675 348 109 101 260 412 0 0 0 304 45 106 47 45 115 68 108 310 466 573 514 382 252 517
136 153 109 103 28 9 626 880 820 484 691 779 696 502 427 392 426 493 507 431 335 426 712 931 1035 618 211 112 125 259 215 0 0 0 77 115 5 56 118 173 259 205 372 580 668 500 407 300 410
320 110 110 67 81 82 341 505 730 485 673 814 754 618 538 470 478 490 450 484 319 288 606 781 898 536 232 232 111 140 99 0 0 0 18 89 0 115 125 186 381 285 275 633 596 564 372 394 467
166 2 126 94 152 165 87 178 977 458 617 673 747 714 694 570 553 532 450 475 311 382 682 714 921 566 276 255 133 12 0 0 0 0 0 92 81 145 228 240 290 337 345 410 378 529 475 463 422
46 59 66 82 30 19 160 137 910 473 438 499 597 708 751 673 642 554 500 417 469 467 687 665 783 603 424 229 48 0 0 0 0 0 0 3 258 418 290 291 361 263 218 327 420 356 370 425 338
228 164 202 95 190 170 187 158 975 665 418 392 299 376 432 679 525 556 416 393 391 354 476 590 570 601 494 125 3 0 0 0 0 0 0 0 368 508 178 210 341 310 157 229 293 187 188 304 529
254 219 232 296 308 200 218 203 165 893 645 521 324 247 381 380 430 443 410 413 327 342 202 440 331 368 336 72 76 30 3 0 0 0 0 7 188 576 239 150 184 259 169 164 199 154 150 82 33
0 40 203 333 412 286 244 324 0 726 871 754 628 475 434 478 395 399 469 501 447 287 115 235 258 128 286 225 115 77 62 71 0 0 0 23 411 461 435 220 362 319 241 183 180 149 143 129 50
9 238 272 367 325 231 135 15 0 2 347 895 836 704 588 555 514 363 508 611 551 367 109 105 222 156 189 176 120 152 167 176 42 47 0 38 318 558 657 396 510 330 156 233 204 119 80 153 210
0 2 138 294 114 102 0 82 0 0 0 234 389 401 272 343 582 449 498 542 626 460 252 126 306 275 225 210 339 435 552 592 307 136 29 45 275 453 583 623 669 481 185 106 138 70 50 100 273
0 0 0 35 72 16 15 16 0 0 21 0 0 0 0 125 81 409 477 541 606 387 409 266 311 286 437 395 455 514 483 434 289 201 270 86 174 253 526 587 488 530 405 119 347 19 118 21 187
0 0 0 0 0 73 0 4 12 1 1 0 0 0 0 0 46 142 534 558 622 625 501 596 333 362 533 516 562 612 631 442 377 277 316 295 215 264 229 230 298 537 542 412 202 429 203 86 75
0 0 76 101 76 28 0 10 29 0 0 0 0 0 0 2 19 148 554 623 647 770 893 725 584 476 606 685 668 650 630 543 483 408 323 323 280 202 333 274 176 166 459 388 271 320 390 196 213
0 0 78 81 0 0 0 43 72 0 0 0 0 0 0 9 0 132 378 629 678 812 878 880 736 793 665 742 771 740 691 629 619 470 365 326 347 322 252 378 359 298 359 415 270 187 400 473 335
0 0 0 0 0 0 0 4 5 0 0 0 0 0 0 0 40 234 192 436 597 780 997 1016 857 879 884 890 858 795 759 759 694 570 494 482 400 425 359 300 434 484 518 459 335 284 376 590 411
0 0 0 0 0 0 0 17 12 0 0 0 0 0 0 0 0 0 179 335 814 932 1017 1040 1011 997 986 995 1011 1015 880 824 812 646 648 586 592 500 526 339 343 410 486 497 416 355 347 377 324
0 0 0 0 0 0 0 4 0 3 0 0 0 0 0 0 0 0 0 270 656 964 1026 1018 1078 1111 1066 981 1002 1146 1063 967 885 855 792 763 670 503 422 421 427 475 493 489 484 450 336 259 207
0 0 0 0 0 0 0 0 0 0 0 0 0 0 0 0 0 0 73 378 413 897 1063 1076 1194 1263 1311 1294 1126 1103 1077 1010 1081 958 877 873 786 574 493 356 396 473 525 516 515 492 491 276 176
CIN
-139 -152 -135 -151 -278 -175 -93 -45 -48 -45 -84 -60 0 -79 -70 -106 -91 0 -129 -151 -47 -19 -5 -2 0 -9 -24 -17 -15 -25 -39 -56 -35 -28 -35 -35 -39 -38 -49 -41 -42 -27 -13 -9 -7 -5 -13 -6 -3
-176 -220 -384 -306 0 -15 -104 -138 -67 -49 -91 -113 -90 -84 -102 -96 -109 -136 -137 -61 -67 -68 -42 -33 0 -26 -41 -23 -16 -30 -44 -56 -23 -28 -12 -38 -37 -42 -34 -34 -33 -24 -11 -6 -5 -6 -11 -8 -3
-286 -402 -280 -49 0 -98 -71 -126 -67 -100 -89 -52 -89 -106 -102 -106 -120 -158 -140 -69 -58 -66 -80 -71 -19 -34 -35 -30 -39 -43 -54 -53 -34 -4 -22 -42 -50 -54 -47 -39 -22 -17 -9 -6 -10 -11 -8 -7 -2
-274 -420 -362 -173 -96 -81 -91 -131 -93 -98 -92 -93 -135 -114 -129 -146 -172 -119 -83 -50 -69 -70 -49 -30 -21 -35 -13 -17 -23 -42 -51 -36 -23 -28 -50 -66 -52 -44 -36 -34 -24 -13 -11 -3 -3 -8 -4 -3 -2
-524 -365 -243 -152 -52 -82 -108 -119 -97 -91 -99 -125 -171 -163 -175 -136 -139 -91 -69 -76 -85 -69 -21 -33 -10 -20 -25 -22 -19 -24 -28 -37 -47 -43 -44 -60 -52 -48 -24 -20 -14 -12 -12 -6 -3 -10 0 0 0
-353 -351 -171 -121 -44 -70 -79 -82 -58 -106 -154 -194 -223 -217 -158 -119 -98 -74 -86 -83 -79 -73 -22 -27 -8 -11 -4 -7 -16 -22 -27 -36 -43 -52 -44 -49 -32 -14 -10 -8 -9 -13 -11 -9 -2 -2 0 0 0
-282 0 0 -169 -53 -56 -79 -112 -95 -137 -174 -200 -237 -211 -156 -129 -94 -111 -152 -139 -84 -47 -21 -27 -18 -14 0 0 -2 -5 -30 -43 -41 -37 -37 -33 -29 -23 -11 -9 -23 -11 -11 -8 -3 -5 0 0 0
-376 0 -65 -47 -65 -54 -93 -120 -163 -142 -173 -208 -212 -257 -128 -188 -139 -136 -209 -229 -40 -20 -24 -39 -42 -11 -19 -8 0 -10 -54 -43 -43 -25 -26 -35 -56 -58 -50 -38 -24 -11 -9 -7 -4 0 0 0 0
-373 -112 -111 -82 -87 -58 -109 -154 -165 -163 -190 -134 -187 -289 -278 -223 -160 -152 -200 -157 -45 -11 -6 -31 -29 -30 -36 -31 -19 -57 -60 -34 -37 -66 -78 -130 -198 -171 -102 -39 -40 -31 -6 -19 -5 -2 0 0 0
-198 -94 -61 -132 -127 -96 -92 -135 -142 -171 -166 -217 -281 -302 -276 -193 -180 -195 -214 -229 -127 -57 -25 -26 -24 -32 -47 -31 -102 -216 -147 -165 -169 -156 -97 -227 -203 -167 -112 -100 -81 -51 -38 -15 -19 -29 -59 -89 -99
-390 -205 -242 -137 -122 -90 -86 -121 -139 -194 -172 -241 -318 -291 -263 -213 -202 -206 -234 -246 -280 -146 -72 -40 -50 -66 -67 -96 -233 -235 -202 -190 -198 0 -201 -193 -218 -240 -253 -238 -144 -224 -98 -123 -94 -80 -105 -122 -83
-169 -158 -179 -136 -84 -102 -80 -121 -179 -195 -147 -262 -324 -334 -276 -230 -222 -200 -229 -251 -175 -115 -91 -54 -74 -90 -119 -216 -237 -230 -142 -244 0 0 -181 -216 -203 -240 -288 -66 0 -172 -207 -135 -104 -92 -111 -95 -59
-178 -145 -122 -103 -113 -124 -95 -111 -148 -191 -287 -344 -309 -281 -272 -256 -234 -201 -234 -224 -183 -131 -95 -73 -81 -117 -172 -230 -243 -182 -144 0 0 0 -171 -227 -202 -199 -215 -236 -233 -214 -152 -116 -109 -95 -94 -88 -36
-181 -168 -129 -106 -110 -123 -134 -136 -158 -270 -346 -334 -323 -311 -296 -285 -260 -205 -185 -182 -187 -160 -114 -88 -82 -134 -228 -237 -237 -198 -187 0 0 0 -214 -201 -39 -231 -205 -214 -185 -186 -145 -122 -106 -105 -87 -66 -36
-167 -109 -91 -120 -137 -116 -137 -106 -134 -308 -380 -359 -349 -316 -272 -245 -236 -271 -260 -211 -221 -213 -126 -105 -92 -147 -222 -218 -232 -222 -236 0 0 0 -249 -214 0 -190 -205 -212 -170 -173 -170 -114 -103 -86 -92 -52 -28
-159 -49 -78 -130 -122 -136 -134 -96 -217 -371 -378 -398 -375 -336 -286 -325 -328 -238 -211 -193 -211 -175 -119 -101 -63 -132 -205 -205 -283 -279 0 0 0 0 0 -212 -215 -168 -168 -196 -172 -161 -170 -145 -125 -91 -67 -45 -25
-304 -147 -171 -119 -208 -191 -118 -115 -245 -399 -402 -393 -392 -351 -321 -338 -262 -247 -236 -200 -167 -167 -126 -123 -97 -126 -155 -196 -271 0 0 0 0 0 0 -63 -152 -134 -149 -172 -165 -169 -175 -148 -105 -103 -89 -52 -20
-87 -110 -111 -157 -118 -156 -129 -136 -261 -364 -400 -390 -414 -399 -395 -347 -335 -309 -273 -257 -220 -186 -165 -148 -137 -132 -141 -240 -53 0 0 0 0 0 0 -47 -150 -126 -184 -168 -157 -155 -180 -155 -124 -134 -119 -62 -14
-133 -151 -127 -115 -149 -155 -120 -149 -204 -328 -409 -409 -425 -452 -410 -420 -338 -322 -295 -206 -316 -297 -291 -201 -214 -200 -184 -250 -235 -246 -33 0 0 0 0 -59 -204 -126 -162 -168 -165 -148 -152 -157 -134 -118 -104 -106 -166
0 -290 -150 -129 -165 -102 -157 -85 0 -308 -381 -387 -371 -405 -403 -372 -369 -345 -319 -378 -376 -359 -404 -321 -285 -319 -228 -215 -245 -263 -262 -220 0 0 0 -141 -161 -138 -133 -146 -128 -149 -156 -152 -129 -118 -91 -79 -173
-139 -158 -137 -87 -120 -171 -189 -136 0 -44 -291 -397 -393 -367 -406 -406 -357 -407 -341 -326 -376 -408 -449 -417 -375 -366 -302 -277 -278 -237 -231 -235 -137 -264 0 -293 -186 -143 -121 -126 -119 -142 -168 -150 -134 -131 -127 -84 -54
0 -9 -257 -160 -212 -126 -38 -169 0 0 0 -331 -371 -387 -446 -477 -405 -398 -380 -333 -292 -468 -447 -425 -368 -385 -339 -329 -254 -193 -162 -135 -200 -212 -278 -297 -213 -149 -126 -109 -102 -112 -158 -167 -148 -152 -142 -131 -51
0 0 0 -238 -283 -367 -422 -233 -1 0 -398 0 0 0 0 -460 -529 -461 -439 -379 -291 -377 -415 -428 -419 -394 -338 -334 -287 -240 -207 -192 -230 -230 -171 -269 -226 -197 -114 -103 -109 -101 -116 -148 -98 -228 -111 -207 -81
0 -17 0 0 0 -205 0 -191 -366 -78 -313 0 0 0 0 0 -369 -595 -481 -427 -363 -387 -339 -287 -411 -412 -361 -349 -309 -266 -237 -236 -235 -247 -202 -198 -197 -173 -176 -132 -118 -96 -85 -95 -128 -82 -94 -144 -154
0 0 -174 -180 -195 -243 0 -242 -315 0 0 0 0 0 0 -49 -636 -573 -539 -508 -452 -438 -401 -401 -453 -417 -396 -366 -344 -325 -289 -265 -252 -241 -243 -213 -215 -202 -143 -141 -141 -132 -92 -91 -110 -101 -78 -96 -89
0 -5 -235 -175 0 -29 0 -280 -237 -139 0 0 0 0 0 -496 -12 -584 -586 -538 -533 -480 -420 -429 -402 -425 -442 -395 -366 -346 -325 -299 -276 -288 -285 -274 -246 -215 -198 -133 -118 -114 -97 -83 -107 -121 -78 -61 -68
0 0 0 0 0 0 0 -46 -37 0 0 0 0 0 0 0 -475 -469 -630 -592 -588 -529 -460 -458 -497 -450 -433 -393 -367 -360 -341 -318 -307 -319 -298 -269 -272 -247 -227 -193 -128 -105 -88 -84 -108 -109 -84 -44 -57
0 0 0 0 0 0 0 -429 -303 0 0 0 0 0 0 0 0 0 -515 -636 -604 -538 -488 -465 -478 -482 -475 -418 -372 -353 -345 -327 -311 -344 -308 -293 -260 -261 -228 -235 -204 -171 -134 -108 -112 -114 -92 -69 -79
0 0 0 0 0 0 0 -104 0 -196 0 0 0 0 0 0 0 0 0 -668 -692 -583 -544 -532 -508 -463 -468 -470 -432 -386 -371 -340 -331 -322 -313 -294 -269 -281 -268 -239 -216 -191 -174 -146 -115 -108 -104 -103 -114
0 0 0 0 0 0 0 0 0 0 0 0 0 0 0 0 0 0 -402 -636 -720 -640 -618 -581 -540 -505 -474 -454 -459 -444 -411 -378 -322 -320 -307 -294 -278 -290 -274 -272 -236 -205 -178 -170 -138 -113 -95 -127 -139
Wind_Speed
5 5 3 2 6 5 3 2 1 5 2 2 14 1 4 3 1 3 6 7 14 10 8 8 11 10 8 7 7 7 7 7 7 7 7 8 7 7 7 7 6 6 6 7 7 8 8 8 7
3 4 1 2 6 4 2 1 2 2 2 6 7 5 4 2 3 10 8 10 15 12 8 7 11 11 9 7 6 5 5 4 5 5 6 8 8 7 7 6 5 6 7 7 6 7 8 8 8
0 4 5 4 3 4 3 3 4 10 9 3 4 6 3 3 9 11 8 14 12 9 8 9 13 10 8 8 7 5 3 3 4 6 7 8 7 7 6 6 8 9 8 7 6 6 7 9 9
3 4 4 5 3 1 3 5 7 8 1 6 7 6 5 2 7 6 14 13 10 7 6 10 13 10 7 5 4 4 2 3 5 6 7 7 7 8 8 9 9 9 8 7 6 7 10 12 13
3 3 4 2 3 2 2 4 5 5 4 5 3 3 8 3 10 15 13 11 11 7 5 7 11 10 9 7 4 1 1 2 4 7 8 7 7 7 9 10 11 12 8 6 10 11 12 12 15
4 2 5 4 3 3 3 4 3 3 4 7 8 6 2 9 15 12 10 9 9 7 5 6 11 10 8 6 5 2 1 3 5 6 7 9 9 9 7 8 10 12 8 7 11 13 14 15 15
4 4 2 2 2 1 2 2 1 3 6 4 6 6 4 9 10 11 10 8 7 6 6 5 5 8 9 6 4 2 2 3 5 8 8 9 10 11 9 10 11 12 8 12 15 15 15 16 16
4 5 2 2 1 0 4 3 6 5 4 8 10 6 7 8 11 11 9 7 6 5 4 5 4 3 4 3 5 2 2 4 5 7 9 11 11 9 10 10 13 16 13 15 17 16 17 17 17
3 5 2 2 2 2 7 4 3 4 9 2 1 6 10 17 14 12 10 6 5 5 4 4 4 4 5 4 3 2 2 5 8 8 10 8 4 5 7 9 12 14 11 13 15 17 18 18 17
3 3 4 5 3 4 7 6 6 4 6 5 11 14 20 17 15 15 13 11 10 8 6 5 4 4 4 3 2 1 3 3 4 4 6 3 5 5 5 5 10 11 13 13 16 18 17 13 6
1 4 3 3 8 5 7 5 2 11 2 6 13 17 18 16 13 13 12 11 12 10 8 7 6 5 5 3 2 0 1 2 3 5 5 4 4 3 3 2 3 3 7 4 6 7 5 8 6
1 4 4 5 4 4 9 7 3 6 4 12 18 21 18 16 15 13 13 13 12 11 13 8 7 6 5 3 3 3 1 0 2 3 4 3 3 4 4 3 4 4 3 5 4 5 6 8 8
1 4 5 2 3 7 10 4 5 1 9 16 15 16 17 15 14 12 11 9 9 12 10 10 7 6 5 5 3 2 2 1 1 3 4 3 3 4 3 3 3 4 3 4 5 5 5 7 8
3 4 7 7 3 5 6 4 4 4 13 15 17 16 15 17 17 11 11 11 11 10 11 10 9 6 5 5 5 3 2 2 1 2 3 4 3 3 3 3 3 4 3 3 3 5 5 6 7
1 4 3 6 4 3 7 2 3 11 15 15 15 14 13 13 13 17 14 13 13 12 10 11 10 6 6 5 5 3 3 2 2 1 3 2 2 3 3 2 2 3 3 5 5 5 6 6 6
5 5 3 4 2 0 4 6 2 12 16 14 14 13 14 18 20 12 10 11 11 10 11 9 9 8 7 5 4 3 3 3 2 2 2 3 1 1 2 3 3 2 3 4 4 4 5 6 5
7 2 2 4 1 2 3 5 6 11 12 13 14 14 14 15 12 11 12 11 11 11 10 10 10 9 9 5 3 3 4 3 3 2 2 4 2 2 2 2 2 3 3 3 4 3 4 5 5
3 4 4 4 1 2 2 8 5 11 12 14 13 13 13 15 16 16 12 11 12 10 9 10 9 8 7 4 3 1 1 3 3 3 2 4 2 3 2 2 2 3 3 3 3 3 4 3 5
1 2 5 4 2 4 4 5 6 13 12 11 10 11 10 16 8 12 12 12 11 13 12 12 11 9 8 3 3 2 3 2 3 3 5 4 4 3 3 2 2 2 2 3 4 3 5 3 4
3 3 5 8 3 1 5 6 6 10 13 16 14 10 13 11 8 10 13 17 13 15 15 14 14 11 10 7 3 3 3 2 2 2 3 4 4 3 3 3 3 3 3 4 3 3 2 2 1
2 3 3 5 4 2 2 7 7 2 7 10 12 10 9 13 11 11 15 17 15 16 16 16 16 14 12 10 4 2 2 1 1 2 2 4 4 5 4 4 3 3 2 3 3 4 4 3 2
4 2 4 5 1 2 3 3 5 6 7 2 7 9 11 14 12 12 15 16 17 18 13 12 12 13 12 11 9 8 5 4 3 3 3 4 5 5 4 4 4 4 3 3 3 4 3 3 3
6 2 4 4 4 3 5 3 5 5 6 4 5 6 8 14 11 17 18 19 15 14 14 9 11 12 11 13 11 9 5 4 3 2 4 4 4 5 5 5 4 4 4 3 4 4 4 2 2
6 2 6 5 3 4 4 2 5 1 3 6 6 9 9 9 8 11 14 14 13 12 14 14 13 13 12 13 12 12 11 8 5 4 4 3 3 3 5 5 4 4 4 5 4 4 5 4 3
5 6 4 4 6 6 3 2 9 4 3 3 8 11 11 7 5 8 11 12 12 18 17 15 15 15 14 14 13 13 12 11 9 7 5 5 4 3 6 6 5 4 5 5 4 4 4 4 3
2 7 7 5 4 4 2 3 5 4 2 6 6 7 6 8 2 7 10 11 13 17 15 18 18 14 14 14 14 12 11 8 8 8 6 5 5 5 5 7 6 6 5 5 5 3 4 4 4
2 1 3 8 3 3 3 7 9 4 2 2 7 6 7 6 6 7 7 8 10 13 15 15 14 12 13 13 11 11 10 10 9 8 8 6 7 5 6 6 7 7 7 7 6 4 5 4 4
4 3 4 3 4 2 5 5 6 5 5 5 6 7 7 8 7 7 6 8 9 11 10 11 11 13 13 12 10 10 10 10 9 7 9 9 8 7 6 7 7 7 7 7 7 5 4 5 4
2 2 6 5 4 6 2 8 9 9 9 6 7 6 7 8 7 6 7 7 9 9 10 11 10 11 11 12 10 11 10 10 9 9 9 10 9 8 8 8 7 8 8 7 7 7 6 6 5
3 6 7 6 4 2 3 8 3 10 3 4 7 8 8 8 8 2 3 6 8 10 11 11 11 13 13 11 11 11 8 8 10 10 9 9 10 9 9 8 8 8 8 8 9 8 7 8 7
Wind_Direction
148 234 243 286 58 59 68 103 22 162 232 233 157 197 149 25 130 190 120 132 130 134 142 146 142 134 130 123 110 102 92 85 79 72 51 40 39 33 33 33 23 9 356 333 325 326 328 332 329
203 246 71 55 81 68 312 197 225 209 134 125 122 115 59 69 82 123 119 148 136 138 139 145 147 147 141 136 118 106 93 78 58 47 48 28 27 22 19 7 358 345 332 330 343 345 349 5 2
121 1 74 68 99 126 138 185 110 135 142 115 104 53 60 70 112 136 128 142 131 135 136 155 155 156 152 144 137 127 120 71 31 16 28 22 18 15 6 344 343 333 333 336 360 3 16 29 35
14 9 35 68 58 352 153 170 137 140 30 79 109 74 73 146 123 124 135 129 112 116 128 159 159 156 147 138 135 134 106 46 10 358 8 16 15 2 348 336 326 321 340 348 17 20 53 59 42
33 47 63 76 59 87 59 118 145 148 122 96 103 92 104 23 112 128 133 127 128 122 140 143 159 158 153 152 144 114 45 17 354 348 355 355 6 352 343 321 316 316 333 4 36 77 67 68 69
51 82 44 22 43 37 53 134 126 90 70 122 97 99 90 130 134 132 124 122 128 132 130 152 157 161 164 166 160 174 335 338 334 346 0 351 348 341 324 325 336 330 352 46 76 87 76 80 76
92 67 97 267 81 52 182 91 90 124 119 101 126 90 112 146 136 124 121 118 127 131 128 144 159 163 167 170 177 196 289 320 334 344 346 343 336 351 348 359 346 354 39 77 97 90 88 79 74
105 93 80 351 242 162 150 135 114 125 58 116 153 148 163 161 138 115 113 110 116 132 138 152 169 164 148 176 182 214 274 310 329 344 343 337 346 359 350 353 16 33 82 88 101 97 85 80 78
120 65 51 186 175 202 146 120 198 87 129 120 32 133 133 139 127 119 117 115 127 151 163 171 173 175 164 178 218 215 291 324 350 340 330 352 333 7 355 11 16 40 69 89 105 94 84 80 77
75 96 209 197 210 194 152 134 159 118 153 59 77 99 124 136 144 150 158 164 170 175 180 181 181 183 175 169 136 5 341 340 334 330 326 346 355 351 26 30 29 44 47 62 95 92 85 80 71
100 145 269 282 223 173 141 135 78 136 223 185 152 143 144 151 158 164 171 176 178 175 183 183 177 180 181 171 155 211 304 331 332 352 340 344 4 353 23 33 44 29 48 61 69 82 75 82 76
38 196 220 240 137 159 145 137 101 175 243 147 158 153 151 162 171 174 175 177 176 180 187 183 180 175 188 167 181 184 228 284 340 343 346 20 10 8 24 35 36 58 19 78 69 82 86 81 74
33 319 303 216 53 108 121 134 167 271 102 127 139 155 164 172 180 187 185 179 174 182 186 188 180 183 184 179 194 199 220 210 304 353 355 49 16 25 19 33 52 54 68 82 96 95 87 86 79
311 289 312 35 111 95 112 148 105 133 131 139 154 171 179 182 187 181 180 182 186 186 191 184 188 188 177 187 189 201 217 234 291 338 10 37 47 6 17 29 63 63 64 85 96 108 99 87 90
334 28 18 38 343 123 129 161 238 150 147 158 170 178 184 198 198 198 185 183 183 193 184 191 186 181 190 192 197 195 213 207 239 310 333 353 70 30 358 45 74 96 94 90 91 91 96 92 87
18 56 72 308 355 158 84 276 173 162 158 175 181 186 188 200 205 199 191 189 186 180 187 182 191 187 193 198 188 197 215 223 240 263 320 329 69 99 23 61 62 66 93 110 103 112 96 103 93
14 39 1 306 239 154 175 257 187 177 179 183 192 191 198 208 203 200 188 185 187 185 177 182 186 185 194 191 185 203 205 226 235 252 278 308 292 159 121 78 66 73 69 95 114 94 117 118 106
25 8 312 267 262 61 224 272 173 192 195 199 196 199 201 210 199 203 179 174 178 182 184 183 185 180 176 149 141 212 190 248 232 226 221 268 255 164 124 110 85 93 99 98 94 92 77 108 116
251 218 260 267 220 175 225 271 210 201 208 213 213 207 215 221 189 197 173 158 187 179 173 186 179 181 167 157 166 211 219 209 236 216 210 235 218 175 150 162 124 103 117 118 118 94 96 90 119
265 270 283 288 182 332 17 307 291 196 221 211 212 206 218 230 184 181 173 181 177 184 182 183 189 180 186 181 166 164 158 215 221 194 192 223 193 165 182 172 154 170 131 118 132 131 116 99 167
269 182 228 253 3 71 35 333 333 342 254 205 223 224 219 218 205 180 182 192 189 188 185 189 187 184 186 180 139 109 113 92 219 210 186 211 190 180 198 192 148 133 130 144 160 152 141 148 233
347 209 254 270 101 244 43 270 301 324 345 191 223 226 223 219 202 192 194 191 197 189 181 187 189 184 186 169 175 184 179 183 203 214 177 187 204 204 190 210 177 159 159 151 165 157 150 136 176
240 341 279 206 124 93 359 72 264 345 345 11 335 298 272 242 202 194 191 199 195 164 176 178 181 188 185 180 182 187 187 195 174 187 198 188 208 209 191 194 200 192 176 184 168 158 164 183 166
260 60 41 45 81 31 310 112 292 229 251 305 305 305 303 277 223 197 197 192 176 148 126 218 189 192 185 181 182 188 198 194 182 185 198 207 196 211 209 204 206 200 197 193 192 188 179 188 213
80 62 352 9 16 215 306 10 238 245 230 260 296 307 310 308 198 170 179 183 168 166 181 188 181 190 187 185 188 192 199 200 198 192 195 194 190 201 215 200 201 201 202 211 201 188 188 187 193
158 151 156 187 187 244 310 243 258 216 276 256 280 282 320 355 258 201 192 189 181 174 177 176 186 186 183 187 195 194 197 200 206 197 192 206 207 203 194 205 204 202 203 206 206 203 203 188 210
182 158 178 103 10 67 270 295 309 274 148 303 304 325 332 321 299 258 185 185 179 177 181 184 180 183 185 195 191 194 197 197 199 196 197 203 207 210 198 202 203 203 201 200 199 206 206 195 203
141 144 73 16 133 237 306 301 242 280 234 276 311 315 328 318 307 288 219 179 181 179 180 182 183 189 184 190 194 192 198 203 202 185 200 204 209 205 192 199 203 202 205 198 198 203 207 204 210
58 60 52 109 107 157 181 265 216 224 210 226 276 295 314 295 304 278 254 176 166 167 177 182 181 184 186 189 190 188 193 198 199 203 204 206 207 203 203 198 203 201 199 200 200 207 202 206 212
174 167 146 125 216 85 144 271 231 225 172 264 308 332 315 297 305 323 186 152 155 174 180 186 186 194 196 188 187 201 197 190 198 208 211 206 209 205 201 194 198 205 203 197 200 207 206 206 208